[[{"header":{"parameterUnit":"m.s-1","parameterCategory":2,"la1":30.2991,"la2":30.254,"lo1":-89.0895,"lo2":-89.0444,"dy":0.0017,"dx":0.0017,"nx":28,"ny":28,"refTime":"2023-08-04T21:00:00:Z","depth":"0","parameterNumber":2,"parameterNumberName":"U-component_of_CURRENTS"},"data":[0,0,0,0,0,0,0,0,0,0,0,0,0,0,0,0,0,0,0,0,0,0,0,0,0,0,0,0,0,0,0,0,0,0,0,0,0,0,0,0,0,0,0,0,0,0,0,0,0,0,0,0,0,0,0,0,0,0,0.1441,0.1443,0,0.1625,0.1627,0.1628,0.1701,0.1701,0.1701,0.1701,0.1666,0.1665,0.1664,0,0,0,0,0,0,0,0,0,0,0,0,0,0.1314,0.1314,0.1441,0.1444,0.1447,0.1625,0.1627,0.1628,0.1701,0.1701,0.1701,0.1701,0.1667,0.1665,0.1664,0,0,0,0,0,0,0,0,0,0,0,0,0,0.1413,0.1314,0.144,0.151,0.1518,0.1624,0.1627,0.1629,0.1701,0.1701,0.1701,0.1702,0.1667,0.1665,0.1664,0.1648,0,0,0.1659,0.1658,0,0,0,0,0,0,0,0,0.1407,0.1417,0.1496,0.1505,0.1515,0.1647,0.157,0.1627,0.1701,0.1624,0.1701,0.1702,0.1644,0.1644,0.1671,0.1646,0.1645,0.1659,0.1657,0.1657,0.1656,0,0,0,0,0,0,0,0.14,0.141,0.1506,0.15,0.1511,0.1588,0.16,0.1582,0.162,0.163,0.1638,0.167,0.1646,0.1673,0.167,0.1644,0.1659,0.1657,0.1656,0.1655,0.1607,0.1607,0,0,0,0,0,0,0.1383,0.1403,0.1501,0.1513,0.1469,0.159,0.1603,0.1598,0.1625,0.1634,0.167,0.1673,0.1675,0.1672,0.1669,0.1659,0.1657,0.1655,0.1654,0.1607,0.1607,0.1607,0,0,0,0,0,0,0.1379,0.1388,0.1493,0.147,0.149,0.1591,0.1586,0.1602,0.1635,0.1659,0.1662,0.1687,0.1675,0.1671,0.162,0.1657,0.1654,0.1653,0.1608,0.1607,0.1607,0.1632,0,0,0,0,0,0,0.1373,0.1384,0.1371,0.1467,0.1491,0.1558,0.1587,0.1605,0.1657,0.1663,0.1674,0.1672,0.1675,0.1622,0.1618,0.1655,0.1652,0.1608,0.1607,0.1607,0.1632,0.1633,0.1634,0,0,0,0,0,0.1368,0.136,0.1368,0.1381,0.1468,0.1559,0.1577,0.1647,0.1657,0.1675,0.1649,0.1672,0.1619,0.1618,0.1615,0.1652,0.1608,0.1607,0.1607,0.1632,0.1633,0.1634,0,0,0,0,0,0,0.1293,0.137,0.1381,0.1392,0.1468,0.1574,0.161,0.1644,0.1647,0.1642,0.164,0.1634,0.1615,0.1611,0.1612,0.1635,0.1629,0.1627,0.1649,0.165,0.1651,0.1677,0.165,0,0,0,0,0,0.1269,0.1284,0.137,0.138,0.142,0.1507,0.155,0.1599,0.1627,0.1633,0.164,0.1631,0.1612,0.1608,0.1597,0.1588,0.1603,0.1617,0.1618,0.1619,0.1636,0.1648,0.1652,0.1604,0.1604,0.1604,0,0,0.1249,0.129,0.13,0.1367,0.1433,0.1499,0.1532,0.1607,0.165,0.162,0.165,0.1625,0.1604,0.1603,0.1598,0.1603,0.1643,0.1618,0.1619,0.1636,0.1648,0.1652,0.1657,0.1604,0.1604,0.1604,0,0,0.1255,0.1249,0.1288,0.1346,0.1445,0.1494,0.1511,0.1611,0.1641,0.1655,0.1642,0.162,0.1618,0.1614,0.1605,0.1597,0.1638,0.1613,0.1652,0.1662,0.1667,0.1671,0.1713,0.1721,0.1626,0.1626,0.1626,0,0.1239,0.1261,0.1315,0.1379,0.1419,0.1487,0.1539,0.1591,0.1656,0.1652,0.1664,0.163,0.163,0.1598,0.1626,0.1605,0.1628,0.165,0.1666,0.1671,0.1675,0.1716,0.1724,0.1627,0.1627,0.1626,0.1626,0,0.13,0.1304,0.1335,0.1415,0.1469,0.1516,0.16,0.1638,0.1664,0.1693,0.1672,0.1653,0.1635,0.1647,0.1648,0.1672,0.1686,0.1658,0.1669,0.1681,0.1723,0.1732,0.1628,0.1628,0.1628,0.1627,0,0,0.1307,0.1359,0.1373,0.1375,0.1475,0.1522,0.1588,0.1636,0.1658,0.1689,0.1693,0.1683,0.1671,0.1661,0.165,0.1685,0.1759,0.1712,0.1712,0.1765,0.1819,0.1859,0.1872,0.1741,0.1742,0.1743,0.1844,0,0.1334,0.1385,0.1427,0.1466,0.1483,0.1546,0.1591,0.1644,0.1681,0.1707,0.168,0.1678,0.1675,0.1675,0.1701,0.1745,0.178,0.1737,0.179,0.1792,0.1835,0.1882,0.1875,0.1968,0.1852,0.1853,0.1854,0,0.1394,0.1396,0.1421,0.1424,0.1447,0.1488,0.1539,0.1599,0.165,0.1682,0.1673,0.1669,0.1703,0.1706,0.1774,0.1753,0.1802,0.1834,0.1837,0.1874,0.1847,0.1932,0.1987,0.1968,0.1867,0.1866,0.1865,0,0.1358,0.139,0.1372,0.1389,0.1433,0.1451,0.1491,0.1565,0.1614,0.1672,0.1705,0.17,0.1731,0.1769,0.1865,0.1831,0.1965,0.1904,0.1968,0.1971,0.1978,0.198,0.203,0.1951,0.1951,0.195,0.195,0,0.1357,0.135,0.1337,0.1342,0.1347,0.1395,0.1437,0.1509,0.1575,0.1621,0.1673,0.1714,0.1761,0.1835,0.1888,0.1987,0.1975,0.2003,0.2005,0.1987,0.1989,0.198,0.1956,0.1954,0.1953,0.1953,0.1952,0,0.1353,0.1332,0.1325,0.1329,0.1337,0.1358,0.1442,0.147,0.155,0.1626,0.1649,0.1754,0.1869,0.1925,0.2027,0.2033,0.2079,0.2138,0.2141,0.2141,0.2144,0.2121,0.2077,0.2021,0.2204,0.2205,0.2207,0,0.1354,0.1337,0.1342,0.1337,0.1342,0.1367,0.1396,0.1475,0.1519,0.1649,0.1678,0.1808,0.1895,0.2074,0.2154,0.2249,0.2163,0.2272,0.2187,0.2179,0.2154,0.202,0.1964,0.2211,0.2212,0.2213,0.2214,0,0.1349,0.135,0.134,0.1338,0.1344,0.1375,0.1411,0.1442,0.153,0.1598,0.1699,0.1775,0.1976,0.2099,0.2252,0.2295,0.2193,0.2295,0.2273,0.2172,0.2042,0.1978,0.2129,0.2224,0.2223,0.2222,0.2222,0.2221,0.1341,0.1342,0.1311,0.1318,0.1327,0.1341,0.136,0.1399,0.1462,0.1542,0.1656,0.1772,0.2009,0.2232,0.2258,0.2355,0.2264,0.2324,0.2305,0.2174,0.2095,0.2294,0.2391,0.2391,0.2391,0.2391,0.2391,0,0.1264,0.1266,0.1284,0.127,0.1266,0.1295,0.1329,0.1329,0.1368,0.1509,0.1592,0.1841,0.2022,0.2189,0.2403,0.2383,0.2225,0.2352,0.2159,0.2106,0.2297,0.2275,0.2367,0.2367,0.2367,0.2367,0.2367,0.2367,0.1209,0.1175,0.1196,0.1165,0.1179,0.1156,0.1164,0.1194,0.1281,0.1422,0.1577,0.1721,0.2067,0.2374,0.2449,0.2391,0.2215,0.2172,0.2106,0.2268,0.2262,0.2257,0.223,0.2311,0.2311,0.1839,0.1836,0.1834]},{"header":{"parameterUnit":"m.s-1","parameterCategory":2,"la1":30.2991,"la2":30.254,"lo1":-89.0895,"lo2":-89.0444,"dy":0.0017,"dx":0.0017,"nx":28,"ny":28,"refTime":"2023-08-04T21:00:00:Z","depth":"0","parameterNumber":3,"parameterNumberName":"V-component_of_CURRENTS"},"data":[0,0,0,0,0,0,0,0,0,0,0,0,0,0,0,0,0,0,0,0,0,0,0,0,0,0,0,0,0,0,0,0,0,0,0,0,0,0,0,0,0,0,0,0,0,0,0,0,0,0,0,0,0,0,0,0,0,0,-0.0255,-0.0256,0,-0.0342,-0.0343,-0.0344,-0.0398,-0.0399,-0.0399,-0.0399,-0.0396,-0.0396,-0.0396,0,0,0,0,0,0,0,0,0,0,0,0,0,-0.0193,-0.0194,-0.0255,-0.0256,-0.0257,-0.0342,-0.0343,-0.0344,-0.0398,-0.0399,-0.0399,-0.0399,-0.0396,-0.0396,-0.0396,0,0,0,0,0,0,0,0,0,0,0,0,0,-0.0245,-0.0194,-0.0255,-0.0293,-0.0297,-0.0341,-0.0343,-0.0345,-0.0398,-0.0399,-0.0399,-0.0399,-0.0397,-0.0396,-0.0396,-0.0388,0,0,-0.0395,-0.0395,0,0,0,0,0,0,0,0,-0.0242,-0.0248,-0.0287,-0.0291,-0.0295,-0.0358,-0.032,-0.0354,-0.0398,-0.0361,-0.0399,-0.0399,-0.0374,-0.0376,-0.0395,-0.0388,-0.0388,-0.0395,-0.0395,-0.0394,-0.0394,0,0,0,0,0,0,0,-0.0238,-0.0244,-0.0291,-0.0288,-0.0293,-0.0325,-0.0333,-0.0328,-0.0365,-0.0365,-0.0369,-0.0376,-0.0376,-0.0395,-0.0395,-0.0388,-0.0395,-0.0394,-0.0394,-0.0394,-0.0348,-0.0347,0,0,0,0,0,0,-0.0222,-0.0241,-0.0288,-0.0293,-0.0267,-0.0326,-0.0334,-0.0339,-0.0367,-0.0372,-0.0376,-0.0378,-0.0396,-0.0395,-0.0395,-0.0368,-0.0394,-0.0394,-0.0394,-0.0349,-0.0348,-0.0347,0,0,0,0,0,0,-0.022,-0.0225,-0.0285,-0.0268,-0.0278,-0.0326,-0.0332,-0.0341,-0.0352,-0.0376,-0.0379,-0.0376,-0.0396,-0.0395,-0.0397,-0.0369,-0.0394,-0.0394,-0.035,-0.0348,-0.0347,-0.0326,0,0,0,0,0,0,-0.0218,-0.0224,-0.0234,-0.0267,-0.0278,-0.0291,-0.0331,-0.0342,-0.0356,-0.0359,-0.0377,-0.0378,-0.0396,-0.0398,-0.0397,-0.0369,-0.0393,-0.0351,-0.0349,-0.0348,-0.0328,-0.0324,-0.0321,0,0,0,0,0,-0.0215,-0.0211,-0.0234,-0.024,-0.0286,-0.029,-0.0298,-0.0335,-0.0355,-0.0348,-0.0379,-0.0377,-0.0384,-0.0398,-0.0397,-0.0367,-0.0352,-0.035,-0.0348,-0.033,-0.0325,-0.0321,0,0,0,0,0,0,-0.0188,-0.0217,-0.0242,-0.0249,-0.0263,-0.0298,-0.0299,-0.0325,-0.0346,-0.0351,-0.0378,-0.038,-0.0376,-0.0369,-0.0383,-0.0346,-0.0361,-0.0359,-0.0348,-0.0343,-0.034,-0.0325,-0.0393,0,0,0,0,0,-0.0187,-0.0201,-0.0221,-0.0232,-0.0226,-0.0262,-0.0274,-0.0294,-0.0315,-0.0326,-0.0343,-0.0354,-0.0366,-0.0354,-0.0366,-0.034,-0.0352,-0.0315,-0.0311,-0.0308,-0.0295,-0.033,-0.0329,-0.0339,-0.0339,-0.0339,0,0,-0.0179,-0.0204,-0.0209,-0.0229,-0.0241,-0.0234,-0.0268,-0.0269,-0.0278,-0.0318,-0.0328,-0.035,-0.0362,-0.0354,-0.0345,-0.034,-0.0306,-0.0305,-0.0303,-0.0291,-0.0328,-0.0327,-0.0327,-0.0337,-0.0338,-0.0338,0,0,-0.0154,-0.0181,-0.0171,-0.0182,-0.0197,-0.0212,-0.0204,-0.0224,-0.0242,-0.0255,-0.0294,-0.0297,-0.0304,-0.0312,-0.0316,-0.0288,-0.0301,-0.0279,-0.023,-0.0266,-0.0266,-0.0266,-0.026,-0.026,-0.0258,-0.0258,-0.0258,0,-0.015,-0.0149,-0.0167,-0.0161,-0.0166,-0.0193,-0.0171,-0.0193,-0.0223,-0.0224,-0.0246,-0.0267,-0.0283,-0.027,-0.0272,-0.0278,-0.0294,-0.0252,-0.0263,-0.0264,-0.0264,-0.0258,-0.0259,-0.0257,-0.0257,-0.0257,-0.0257,0,-0.0104,-0.0121,-0.0107,-0.0116,-0.0113,-0.0105,-0.0119,-0.0125,-0.0147,-0.0166,-0.0166,-0.0202,-0.0207,-0.0208,-0.0238,-0.0231,-0.024,-0.0275,-0.028,-0.0263,-0.0256,-0.0257,-0.0255,-0.0255,-0.0256,-0.0256,0,0,-0.0066,-0.0076,-0.0076,-0.0077,-0.0093,-0.0077,-0.0079,-0.0073,-0.0061,-0.0093,-0.0082,-0.011,-0.0126,-0.0131,-0.0158,-0.0176,-0.02,-0.0222,-0.0224,-0.0223,-0.0256,-0.0259,-0.0261,-0.0254,-0.0255,-0.0255,-0.0243,0,-0.0033,-0.0015,-0.0024,-0.0006,0.0007,-0.0015,-0.0011,-0.0015,-0.0022,-0.0021,-0.0048,-0.0051,-0.0097,-0.0099,-0.013,-0.0193,-0.0205,-0.0198,-0.0265,-0.0265,-0.0279,-0.0263,-0.0234,-0.0222,-0.0244,-0.0244,-0.0244,0,0.0006,0.0008,0.0037,0.0037,0.0051,0.0063,0.0086,0.0087,0.008,0.0076,0.0071,0.0034,0.0011,-0.0046,-0.0119,-0.0119,-0.0182,-0.0225,-0.0227,-0.0238,-0.0272,-0.0246,-0.0223,-0.0323,-0.0245,-0.0245,-0.0245,0,0.0032,0.0045,0.0069,0.0065,0.0074,0.0095,0.0111,0.0121,0.0142,0.014,0.016,0.0113,0.0087,0.0004,-0.0097,-0.0119,-0.0182,-0.0225,-0.027,-0.0269,-0.0257,-0.0256,-0.0346,-0.0278,-0.0278,-0.0278,-0.0278,0,0.0044,0.0057,0.0086,0.0091,0.0143,0.0139,0.0198,0.0206,0.0225,0.0272,0.0215,0.0237,0.0086,0.0026,-0.0068,-0.0159,-0.0161,-0.025,-0.0272,-0.0245,-0.0243,-0.0341,-0.0409,-0.0277,-0.0277,-0.0277,-0.0278,0,0.0048,0.0053,0.008,0.0119,0.0148,0.0183,0.0257,0.0295,0.0314,0.0368,0.0367,0.0312,0.0222,0.0098,-0.004,-0.0113,-0.0254,-0.0234,-0.0172,-0.0188,-0.0333,-0.04,-0.051,-0.0541,-0.0275,-0.0276,-0.0276,0,0.0055,0.0067,0.0122,0.0152,0.0173,0.0237,0.0287,0.0331,0.0383,0.0431,0.046,0.038,0.0362,0.0184,-0.0014,-0.0161,-0.0267,-0.0204,-0.0248,-0.0326,-0.0418,-0.0476,-0.0499,-0.0209,-0.0208,-0.0208,-0.0208,0,0.0074,0.0086,0.011,0.0183,0.0239,0.0317,0.0398,0.0456,0.0511,0.0561,0.0615,0.0608,0.0416,0.0266,0.0042,-0.0073,-0.0272,-0.0201,-0.0311,-0.0392,-0.0432,-0.0477,-0.0207,-0.0204,-0.0205,-0.0205,-0.0205,-0.0205,0.0092,0.0117,0.0159,0.0224,0.0289,0.0393,0.0481,0.0564,0.0662,0.0768,0.0738,0.0789,0.0565,0.0238,0.0048,-0.0272,-0.0301,-0.0324,-0.0398,-0.0449,-0.0492,-0.0196,-0.0212,-0.0213,-0.0213,-0.0213,-0.0214,0,0.0133,0.0161,0.0216,0.0296,0.0379,0.042,0.0558,0.0655,0.079,0.088,0.0941,0.0908,0.0615,0.0297,-0.0145,-0.0378,-0.049,-0.0512,-0.0591,-0.0604,-0.0357,-0.0367,-0.0383,-0.0383,-0.0383,-0.0382,-0.0382,-0.0382,0.0146,0.0209,0.0241,0.0375,0.0442,0.0595,0.0688,0.0817,0.0929,0.109,0.1174,0.1215,0.1051,0.0145,-0.0411,-0.056,-0.0752,-0.0808,-0.0896,-0.0736,-0.0724,-0.0713,-0.0738,-0.0832,-0.0832,-0.109,-0.1093,-0.1095]}],[{"header":{"parameterUnit":"m.s-1","parameterCategory":2,"la1":30.2991,"la2":30.254,"lo1":-89.0895,"lo2":-89.0444,"dy":0.0017,"dx":0.0017,"nx":28,"ny":28,"refTime":"2023-08-04T21:00:00:Z","depth":"2","parameterNumber":2,"parameterNumberName":"U-component_of_CURRENTS"},"data":[0,0,0,0,0,0,0,0,0,0,0,0,0,0,0,0,0,0,0,0,0,0,0,0,0,0,0,0,0,0,0,0,0,0,0,0,0,0,0,0,0,0,0,0,0,0,0,0,0,0,0,0,0,0,0,0,0,0,0.0839,0.0842,0,0.1019,0.1021,0.1023,0.116,0.1162,0.1164,0.1166,0.0977,0.0971,0.0964,0,0,0,0,0,0,0,0,0,0,0,0,0,0.0813,0.0811,0.0839,0.0842,0.0845,0.1019,0.1021,0.1023,0.116,0.1162,0.1165,0.1167,0.098,0.0972,0.0964,0,0,0,0,0,0,0,0,0,0,0,0,0,0.0886,0.0811,0.0839,0.0938,0.0949,0.1019,0.1021,0.1023,0.116,0.1162,0.1165,0.1168,0.0982,0.0972,0.0963,0.0847,0,0,0.0932,0.0928,0,0,0,0,0,0,0,0,0.0881,0.0886,0.0921,0.0932,0.0944,0.1075,0.0944,0.0948,0.1159,0.1074,0.1166,0.1169,0.0977,0.0968,0.0993,0.0838,0.083,0.0931,0.0925,0.0921,0.0918,0,0,0,0,0,0,0,0.0876,0.088,0.0905,0.0924,0.0938,0.1043,0.1054,0.0947,0.0997,0.1082,0.1093,0.1121,0.0981,0.1003,0.0989,0.0827,0.0931,0.0922,0.0916,0.0912,0.0933,0.0939,0,0,0,0,0,0,0.0851,0.0874,0.0899,0.0911,0.0925,0.1041,0.1053,0.1026,0.1007,0.1011,0.1119,0.1127,0.1019,0.1,0.0982,0.1005,0.0921,0.0911,0.0906,0.0926,0.0934,0.0941,0,0,0,0,0,0,0.0848,0.0849,0.0892,0.0905,0.0919,0.1037,0.1007,0.1028,0.1116,0.104,0.1037,0.1194,0.102,0.0996,0.0987,0.0992,0.0907,0.0898,0.0919,0.0929,0.0938,0.0944,0,0,0,0,0,0,0.0846,0.0845,0.084,0.0901,0.0917,0.0981,0.1006,0.103,0.1128,0.1142,0.11,0.1084,0.1021,0.1003,0.0977,0.0977,0.089,0.091,0.0923,0.0935,0.0936,0.0953,0.0968,0,0,0,0,0,0.0843,0.0834,0.0836,0.0843,0.0895,0.0984,0.1003,0.1094,0.1129,0.118,0.1181,0.1088,0.1066,0.0998,0.0966,0.0963,0.0904,0.0919,0.0934,0.0928,0.0949,0.0967,0,0,0,0,0,0,0.0836,0.0849,0.0854,0.085,0.0929,0.1011,0.1063,0.1122,0.1169,0.1165,0.1115,0.1099,0.1086,0.1069,0.0998,0.1037,0.099,0.0999,0.0998,0.1016,0.1032,0.1052,0.0881,0,0,0,0,0,0.0819,0.0816,0.0861,0.0876,0.0898,0.0984,0.104,0.109,0.1134,0.1164,0.115,0.1145,0.1113,0.1106,0.1062,0.105,0.1038,0.1065,0.1081,0.1094,0.111,0.1109,0.1122,0.099,0.099,0.0989,0,0,0.0811,0.0837,0.0826,0.0877,0.0929,0.0976,0.1025,0.1102,0.1147,0.1114,0.1169,0.1153,0.1125,0.1124,0.1125,0.1113,0.1139,0.1112,0.1121,0.1131,0.1125,0.1136,0.1146,0.1,0.0998,0.0996,0,0,0.0851,0.0819,0.0847,0.0876,0.0959,0.1006,0.104,0.1126,0.1169,0.1201,0.1207,0.1227,0.1194,0.1195,0.1179,0.127,0.1199,0.1297,0.1385,0.1384,0.1391,0.1397,0.1416,0.1424,0.1331,0.1331,0.1331,0,0.0836,0.0869,0.0885,0.092,0.0949,0.1022,0.1065,0.1105,0.1194,0.1226,0.1224,0.1235,0.1214,0.1208,0.1307,0.128,0.1308,0.1275,0.139,0.1397,0.1402,0.142,0.1428,0.1333,0.1333,0.1333,0.1332,0,0.091,0.0912,0.0933,0.0978,0.1022,0.1061,0.1097,0.1171,0.122,0.1257,0.127,0.1244,0.1275,0.1292,0.1328,0.1394,0.1407,0.1367,0.1301,0.1413,0.1429,0.1437,0.1336,0.1335,0.1335,0.1334,0,0,0.0909,0.0962,0.0962,0.0972,0.103,0.1067,0.1138,0.1227,0.1279,0.1298,0.134,0.1346,0.1358,0.1359,0.137,0.1427,0.1518,0.148,0.1479,0.1431,0.1563,0.1587,0.1597,0.1504,0.1505,0.1507,0.1558,0,0.0963,0.0988,0.1039,0.1079,0.108,0.1139,0.1192,0.126,0.1324,0.1379,0.1336,0.1353,0.1362,0.139,0.1432,0.1482,0.1544,0.1511,0.1524,0.1525,0.1473,0.1608,0.137,0.1399,0.1565,0.1567,0.1567,0,0.1024,0.1029,0.1048,0.1077,0.1088,0.1142,0.124,0.1298,0.138,0.1421,0.143,0.1411,0.1462,0.1453,0.1513,0.1507,0.1582,0.161,0.1609,0.1633,0.1565,0.1322,0.1406,0.158,0.1579,0.1578,0.1577,0,0.1005,0.1035,0.1046,0.1037,0.1093,0.1155,0.122,0.1321,0.1378,0.1465,0.1509,0.1487,0.1498,0.1525,0.1622,0.1594,0.1704,0.162,0.1685,0.1685,0.1487,0.1469,0.1696,0.1696,0.1696,0.1696,0.1695,0,0.1015,0.1021,0.1027,0.1025,0.1081,0.1107,0.1209,0.1313,0.1389,0.1451,0.151,0.1534,0.1547,0.1599,0.1643,0.1706,0.1694,0.1735,0.1712,0.1495,0.1478,0.1632,0.1624,0.1697,0.1697,0.1697,0.1696,0,0.1007,0.0997,0.1034,0.107,0.1086,0.1129,0.1234,0.1283,0.1386,0.147,0.15,0.1605,0.1684,0.1698,0.178,0.1751,0.1792,0.1837,0.1611,0.1563,0.1759,0.1752,0.1844,0.1845,0.1847,0.1848,0.1849,0,0.0994,0.1012,0.1068,0.1088,0.1128,0.1172,0.1207,0.1304,0.1359,0.1503,0.1527,0.1656,0.1711,0.1814,0.1782,0.1796,0.19,0.1676,0.1567,0.1812,0.1779,0.1771,0.1762,0.1302,0.1298,0.1295,0.1293,0,0.0997,0.1046,0.1061,0.111,0.1154,0.1196,0.1248,0.1283,0.1379,0.1438,0.1535,0.1586,0.1676,0.1595,0.1683,0.1659,0.1628,0.162,0.1912,0.133,0.1313,0.1278,0.1284,0.1266,0.1269,0.1271,0.1273,0.1274,0.1022,0.1035,0.1057,0.1124,0.1157,0.1185,0.1211,0.1239,0.1289,0.135,0.1446,0.1482,0.1442,0.1437,0.1427,0.1437,0.1509,0.1436,0.1439,0.1446,0.1404,0.1393,0.1353,0.1356,0.1359,0.1361,0.1363,0,0.0997,0.0997,0.1047,0.1101,0.1118,0.1157,0.1194,0.1176,0.1184,0.1261,0.1305,0.1168,0.1125,0.1188,0.1091,0.109,0.1013,0.1124,0.0967,0.0991,0.1013,0.0944,0.0774,0.0774,0.0774,0.0773,0,0,0.0974,0.0957,0.0979,0.1,0.1048,0.1032,0.1042,0.1036,0.1063,0.1046,0.1059,0.1102,0.1111,0.0926,0.0862,0.083,0.093,0.0815,0.1261,0.1097,0.112,0.1142,0.1058,0,0,0,0,0]},{"header":{"parameterUnit":"m.s-1","parameterCategory":2,"la1":30.2991,"la2":30.254,"lo1":-89.0895,"lo2":-89.0444,"dy":0.0017,"dx":0.0017,"nx":28,"ny":28,"refTime":"2023-08-04T21:00:00:Z","depth":"2","parameterNumber":3,"parameterNumberName":"V-component_of_CURRENTS"},"data":[0,0,0,0,0,0,0,0,0,0,0,0,0,0,0,0,0,0,0,0,0,0,0,0,0,0,0,0,0,0,0,0,0,0,0,0,0,0,0,0,0,0,0,0,0,0,0,0,0,0,0,0,0,0,0,0,0,0,-0.0141,-0.0142,0,-0.0263,-0.0264,-0.0266,-0.0361,-0.0362,-0.0363,-0.0364,-0.0316,-0.0314,-0.0312,0,0,0,0,0,0,0,0,0,0,0,0,0,-0.008,-0.0081,-0.0141,-0.0143,-0.0144,-0.0263,-0.0264,-0.0266,-0.0361,-0.0362,-0.0363,-0.0364,-0.0316,-0.0314,-0.0312,0,0,0,0,0,0,0,0,0,0,0,0,0,-0.0146,-0.0081,-0.0141,-0.0205,-0.0212,-0.0262,-0.0264,-0.0267,-0.0361,-0.0362,-0.0363,-0.0364,-0.0317,-0.0314,-0.0311,-0.0268,0,0,-0.0302,-0.0301,0,0,0,0,0,0,0,0,-0.0142,-0.0148,-0.0194,-0.02,-0.0208,-0.0297,-0.0226,-0.0258,-0.0361,-0.0305,-0.0364,-0.0365,-0.0292,-0.0291,-0.0316,-0.0266,-0.0264,-0.0302,-0.03,-0.0298,-0.0298,0,0,0,0,0,0,0,-0.0137,-0.0144,-0.0191,-0.0195,-0.0204,-0.0258,-0.0268,-0.0234,-0.0288,-0.031,-0.0317,-0.0328,-0.0295,-0.0318,-0.0314,-0.0263,-0.0302,-0.0299,-0.0297,-0.0296,-0.0246,-0.0246,0,0,0,0,0,0,-0.0113,-0.0139,-0.0187,-0.0194,-0.0176,-0.0257,-0.0269,-0.0268,-0.0292,-0.0298,-0.0327,-0.0332,-0.0323,-0.0318,-0.0313,-0.0289,-0.0298,-0.0296,-0.0294,-0.0245,-0.0246,-0.0246,0,0,0,0,0,0,-0.0111,-0.0116,-0.0182,-0.0169,-0.0181,-0.0256,-0.0256,-0.027,-0.0299,-0.0307,-0.031,-0.0342,-0.0324,-0.0317,-0.0322,-0.0286,-0.0294,-0.0291,-0.0244,-0.0245,-0.0246,-0.0222,0,0,0,0,0,0,-0.0109,-0.0114,-0.0131,-0.0167,-0.0181,-0.0204,-0.0255,-0.0271,-0.0303,-0.0311,-0.0319,-0.0317,-0.0324,-0.0327,-0.0319,-0.0282,-0.0289,-0.0244,-0.0245,-0.0246,-0.0222,-0.0222,-0.0221,0,0,0,0,0,-0.0106,-0.011,-0.013,-0.0138,-0.0192,-0.0203,-0.0215,-0.0275,-0.0302,-0.0306,-0.0345,-0.0317,-0.0327,-0.0326,-0.0316,-0.0277,-0.0243,-0.0245,-0.0246,-0.0222,-0.0222,-0.0221,0,0,0,0,0,0,-0.0096,-0.0121,-0.0144,-0.0158,-0.0176,-0.0219,-0.0238,-0.0267,-0.0303,-0.031,-0.0326,-0.0326,-0.0317,-0.0308,-0.0306,-0.0271,-0.0277,-0.0276,-0.0262,-0.0261,-0.0261,-0.0243,-0.0287,0,0,0,0,0,-0.0097,-0.0113,-0.013,-0.0148,-0.0146,-0.0189,-0.021,-0.0235,-0.0263,-0.0282,-0.0292,-0.0304,-0.0311,-0.0299,-0.0301,-0.0269,-0.0277,-0.0241,-0.024,-0.024,-0.0223,-0.0258,-0.0259,-0.025,-0.025,-0.025,0,0,-0.0096,-0.012,-0.0128,-0.0149,-0.0169,-0.0165,-0.0205,-0.0214,-0.0227,-0.0262,-0.0283,-0.0298,-0.0309,-0.0301,-0.0291,-0.0285,-0.0244,-0.0241,-0.024,-0.0223,-0.026,-0.026,-0.0261,-0.0251,-0.025,-0.025,0,0,-0.0085,-0.0114,-0.0109,-0.012,-0.014,-0.0157,-0.015,-0.0173,-0.02,-0.0212,-0.0255,-0.026,-0.0256,-0.0268,-0.0271,-0.0261,-0.025,-0.0253,-0.0217,-0.0252,-0.0253,-0.0254,-0.0248,-0.0249,-0.0241,-0.0241,-0.0241,0,-0.009,-0.0092,-0.0111,-0.0106,-0.0114,-0.0142,-0.0121,-0.015,-0.0183,-0.0186,-0.0211,-0.0229,-0.0239,-0.0229,-0.0248,-0.0252,-0.0271,-0.0215,-0.025,-0.0252,-0.0253,-0.0247,-0.0248,-0.024,-0.024,-0.024,-0.0241,0,-0.0057,-0.0076,-0.0068,-0.0075,-0.0075,-0.0069,-0.0081,-0.0093,-0.0118,-0.0136,-0.0135,-0.0169,-0.0176,-0.0178,-0.0214,-0.0213,-0.0223,-0.0255,-0.0247,-0.0252,-0.0246,-0.0247,-0.0239,-0.0239,-0.0239,-0.024,0,0,-0.0028,-0.0043,-0.0042,-0.0045,-0.0058,-0.0043,-0.0052,-0.0051,-0.0045,-0.0072,-0.0067,-0.0092,-0.0103,-0.011,-0.0139,-0.0164,-0.0196,-0.0215,-0.0218,-0.02,-0.0256,-0.0262,-0.0264,-0.0251,-0.0252,-0.0252,-0.0242,0,-0.0003,0.0012,0.0005,0.0018,0.0026,0.0007,0.0004,0.0001,-0.0009,-0.0015,-0.0036,-0.0039,-0.008,-0.0081,-0.0118,-0.0185,-0.0202,-0.0194,-0.0261,-0.0262,-0.026,-0.0267,-0.025,-0.0242,-0.0244,-0.0244,-0.0244,0,0.0026,0.0027,0.0054,0.0052,0.0065,0.0077,0.0094,0.0091,0.0077,0.0073,0.0074,0.0041,0.0013,-0.0039,-0.0114,-0.0116,-0.0182,-0.0227,-0.0229,-0.0241,-0.0272,-0.0242,-0.0244,-0.0246,-0.0246,-0.0246,-0.0246,0,0.0047,0.0057,0.0077,0.0076,0.0083,0.0101,0.0116,0.0123,0.0141,0.0133,0.0155,0.011,0.0087,0.0002,-0.01,-0.0122,-0.0191,-0.023,-0.0278,-0.0277,-0.0275,-0.0274,-0.0285,-0.0285,-0.0285,-0.0285,-0.0285,0,0.0051,0.0063,0.0088,0.0097,0.0143,0.0141,0.0196,0.0201,0.0218,0.0262,0.0208,0.0231,0.0082,0.002,-0.0075,-0.0168,-0.0169,-0.026,-0.0281,-0.0265,-0.0263,-0.0282,-0.0282,-0.0285,-0.0285,-0.0285,-0.0285,0,0.0051,0.0054,0.0075,0.0115,0.0144,0.0176,0.0254,0.0288,0.0307,0.0357,0.0356,0.0301,0.0209,0.0086,-0.0057,-0.0125,-0.0215,-0.0249,-0.0199,-0.0216,-0.0278,-0.0277,-0.0293,-0.0293,-0.0294,-0.0294,-0.0294,0,0.0056,0.0062,0.0115,0.0146,0.0167,0.023,0.0278,0.0322,0.0372,0.042,0.0446,0.0363,0.0331,0.0149,-0.0041,-0.0189,-0.0222,-0.0238,-0.0281,-0.0263,-0.0282,-0.028,-0.0279,-0.0257,-0.0256,-0.0256,-0.0256,0,0.0078,0.0084,0.0109,0.0176,0.0232,0.0308,0.0389,0.0445,0.0498,0.0542,0.0589,0.0569,0.0371,0.0191,-0.0033,-0.0126,-0.0217,-0.024,-0.0243,-0.0263,-0.023,-0.0248,-0.0248,-0.0255,-0.0255,-0.0255,-0.0255,-0.0255,0.0098,0.012,0.016,0.0219,0.0282,0.0384,0.0471,0.0545,0.0632,0.0709,0.0677,0.0653,0.0422,0.0109,-0.0056,-0.0229,-0.0239,-0.0274,-0.0274,-0.0274,-0.0278,-0.0248,-0.0274,-0.0274,-0.0274,-0.0274,-0.0274,0,0.0137,0.0166,0.0221,0.0295,0.0374,0.0413,0.0548,0.0628,0.0741,0.0764,0.0789,0.0582,0.0384,0.0153,-0.0106,-0.0253,-0.0264,-0.0284,-0.0271,-0.0271,-0.0271,-0.0275,-0.027,-0.0271,-0.0271,-0.0271,0,0,0.0154,0.0215,0.0246,0.0377,0.044,0.0584,0.0673,0.0764,0.0816,0.0847,0.0814,0.0695,0.043,0.0223,-0.0003,-0.0118,-0.0146,-0.0136,-0.0122,-0.0077,-0.0075,-0.025,-0.0254,0,0,0,0,0]}],[{"header":{"parameterUnit":"m.s-1","parameterCategory":2,"la1":30.2991,"la2":30.254,"lo1":-89.0895,"lo2":-89.0444,"dy":0.0017,"dx":0.0017,"nx":28,"ny":28,"refTime":"2023-08-04T21:00:00:Z","depth":"4","parameterNumber":2,"parameterNumberName":"U-component_of_CURRENTS"},"data":[0,0,0,0,0,0,0,0,0,0,0,0,0,0,0,0,0,0,0,0,0,0,0,0,0,0,0,0,0,0,0,0,0,0,0,0,0,0,0,0,0,0,0,0,0,0,0,0,0,0,0,0,0,0,0,0,0,0,-0.047,-0.047,0,-0.0481,-0.0481,-0.0482,-0.0497,-0.0497,-0.0497,-0.0497,-0.0575,-0.0577,-0.0579,0,0,0,0,0,0,0,0,0,0,0,0,0,-0.0495,-0.0495,-0.047,-0.047,-0.0469,-0.0481,-0.0482,-0.0482,-0.0497,-0.0497,-0.0497,-0.0497,-0.0574,-0.0577,-0.0579,0,0,0,0,0,0,0,0,0,0,0,0,0,-0.0496,-0.0495,-0.047,-0.0476,-0.0476,-0.0481,-0.0482,-0.0482,-0.0497,-0.0497,-0.0497,-0.0497,-0.0573,-0.0577,-0.058,-0.0601,0,0,-0.0589,-0.0591,0,0,0,0,0,0,0,0,-0.0496,-0.0495,-0.0475,-0.0475,-0.0476,-0.0485,-0.0519,-0.0524,-0.0497,-0.0492,-0.0497,-0.0496,-0.0549,-0.0554,-0.056,-0.0604,-0.0608,-0.059,-0.0592,-0.0593,-0.0594,0,0,0,0,0,0,0,-0.0496,-0.0495,-0.0477,-0.0475,-0.0475,-0.049,-0.049,-0.052,-0.0525,-0.0493,-0.0493,-0.0489,-0.055,-0.0557,-0.0562,-0.0609,-0.059,-0.0593,-0.0594,-0.0596,-0.0745,-0.0747,0,0,0,0,0,0,-0.0486,-0.0495,-0.0477,-0.0477,-0.0482,-0.0489,-0.0489,-0.0485,-0.0523,-0.0527,-0.0489,-0.049,-0.0551,-0.0558,-0.0565,-0.0695,-0.0593,-0.0596,-0.0598,-0.0743,-0.0745,-0.0747,0,0,0,0,0,0,-0.0487,-0.0485,-0.0477,-0.0484,-0.0484,-0.0488,-0.0483,-0.0485,-0.0505,-0.0519,-0.0525,-0.0509,-0.0552,-0.056,-0.0627,-0.0694,-0.0597,-0.06,-0.074,-0.0743,-0.0746,-0.089,0,0,0,0,0,0,-0.0487,-0.0485,-0.0481,-0.0483,-0.0483,-0.0481,-0.0483,-0.0485,-0.05,-0.0502,-0.0538,-0.0544,-0.0552,-0.0623,-0.063,-0.0697,-0.0603,-0.0738,-0.0742,-0.0745,-0.0882,-0.0897,-0.091,0,0,0,0,0,-0.0488,-0.0488,-0.0481,-0.0478,-0.0476,-0.0481,-0.0483,-0.0488,-0.0501,-0.0508,-0.0556,-0.0543,-0.0652,-0.0628,-0.0636,-0.0705,-0.0736,-0.0741,-0.0745,-0.0876,-0.0894,-0.091,0,0,0,0,0,0,-0.0506,-0.0489,-0.0481,-0.0478,-0.0477,-0.0483,-0.0496,-0.0499,-0.054,-0.0552,-0.0577,-0.0587,-0.0667,-0.0659,-0.0632,-0.0754,-0.0689,-0.0695,-0.0785,-0.0802,-0.0816,-0.0723,-0.0606,0,0,0,0,0,-0.0503,-0.0495,-0.0486,-0.0484,-0.049,-0.0497,-0.0502,-0.0501,-0.0532,-0.0549,-0.0585,-0.0628,-0.069,-0.0724,-0.0754,-0.0828,-0.0765,-0.0872,-0.0886,-0.0898,-0.0826,-0.0851,-0.0861,-0.0762,-0.0762,-0.0762,0,0,-0.051,-0.0499,-0.0496,-0.0486,-0.0496,-0.05,-0.0502,-0.0513,-0.0535,-0.0554,-0.0623,-0.0674,-0.0716,-0.0804,-0.0838,-0.0812,-0.0895,-0.0904,-0.0915,-0.0833,-0.0857,-0.0866,-0.0874,-0.0766,-0.0765,-0.0764,0,0,-0.052,-0.0516,-0.0512,-0.0515,-0.0514,-0.0512,-0.0518,-0.0537,-0.0571,-0.0639,-0.0671,-0.0745,-0.0837,-0.0875,-0.0912,-0.1009,-0.0962,-0.1048,-0.1058,-0.1089,-0.1096,-0.1101,-0.1038,-0.1036,-0.1065,-0.1065,-0.1065,0,-0.0531,-0.0517,-0.0515,-0.0518,-0.0519,-0.0522,-0.0524,-0.0561,-0.0603,-0.0659,-0.0672,-0.0833,-0.086,-0.0978,-0.1002,-0.1039,-0.1016,-0.1008,-0.1106,-0.111,-0.1113,-0.1046,-0.1043,-0.1072,-0.1072,-0.1071,-0.107,0,-0.0532,-0.0529,-0.0539,-0.0532,-0.0534,-0.0541,-0.0569,-0.062,-0.0673,-0.0717,-0.0853,-0.0912,-0.0995,-0.105,-0.1051,-0.112,-0.1081,-0.1121,-0.1063,-0.1132,-0.1057,-0.1051,-0.1083,-0.1081,-0.1078,-0.1076,0,0,-0.0535,-0.0536,-0.0541,-0.0534,-0.054,-0.0538,-0.061,-0.0671,-0.0735,-0.0829,-0.0937,-0.1039,-0.1071,-0.1102,-0.115,-0.1163,-0.1169,-0.1142,-0.114,-0.107,-0.1175,-0.1026,-0.1004,-0.126,-0.1259,-0.1259,-0.1114,0,-0.0536,-0.0541,-0.0537,-0.0537,-0.0538,-0.0573,-0.0632,-0.0698,-0.0782,-0.0893,-0.1009,-0.1111,-0.1101,-0.1162,-0.1179,-0.1151,-0.1158,-0.1198,-0.1117,-0.1111,-0.0969,-0.0994,-0.1259,-0.1109,-0.1107,-0.1106,-0.1105,0,-0.0527,-0.0529,-0.0538,-0.0541,-0.0549,-0.0574,-0.0663,-0.0717,-0.088,-0.0966,-0.1093,-0.1148,-0.1183,-0.1195,-0.1147,-0.1181,-0.1156,-0.114,-0.1138,-0.0919,-0.095,-0.1023,-0.1093,-0.1094,-0.1095,-0.1096,-0.1096,0,-0.0517,-0.0519,-0.0524,-0.0527,-0.0548,-0.0609,-0.066,-0.0781,-0.0847,-0.103,-0.1077,-0.1162,-0.118,-0.118,-0.1094,-0.1131,-0.1028,-0.1097,-0.0944,-0.0932,-0.1046,-0.1041,-0.1083,-0.1083,-0.1083,-0.1084,-0.1084,0,-0.0504,-0.0506,-0.0541,-0.0551,-0.0577,-0.0624,-0.0707,-0.0795,-0.0937,-0.0977,-0.1112,-0.1105,-0.1173,-0.1124,-0.109,-0.0935,-0.1024,-0.0882,-0.0883,-0.111,-0.1115,-0.1041,-0.1038,-0.1078,-0.108,-0.1081,-0.1082,0,-0.0489,-0.0507,-0.05,-0.055,-0.0575,-0.0618,-0.0726,-0.0782,-0.0917,-0.0976,-0.1023,-0.105,-0.0926,-0.0954,-0.0902,-0.087,-0.0798,-0.0758,-0.0911,-0.0934,-0.0675,-0.0682,-0.0528,-0.0522,-0.0516,-0.0512,-0.0508,0,-0.0486,-0.0486,-0.0503,-0.0503,-0.054,-0.0622,-0.0667,-0.0801,-0.0821,-0.0874,-0.0852,-0.0806,-0.0794,-0.0568,-0.0626,-0.0567,-0.0595,-0.0571,-0.0671,-0.06,-0.0619,-0.0634,-0.0647,-0.0499,-0.0498,-0.0496,-0.0495,0,-0.0463,-0.0471,-0.0464,-0.0473,-0.0506,-0.0517,-0.0587,-0.0589,-0.0678,-0.0777,-0.0633,-0.0599,-0.0461,-0.04,-0.0383,-0.0362,-0.0587,-0.0514,-0.0526,-0.062,-0.0563,-0.0591,-0.061,-0.0476,-0.0478,-0.048,-0.0481,0,-0.0445,-0.0419,-0.0412,-0.0414,-0.0424,-0.0398,-0.045,-0.0415,-0.0442,-0.0487,-0.0398,-0.037,-0.0375,-0.0285,-0.025,-0.0223,-0.0226,-0.026,-0.0286,-0.0308,-0.0315,-0.0216,0.0027,0,0,0,0,0,-0.0423,-0.0381,-0.0359,-0.0318,-0.0323,-0.034,-0.0355,-0.0397,-0.0445,-0.0297,-0.0361,-0.0227,-0.0153,-0.0128,-0.0053,-0.0173,-0.0257,-0.0089,-0.0317,-0.037,-0.0392,-0.0428,0,0,0,0,0,0,-0.039,-0.0364,-0.033,-0.025,-0.0221,-0.0208,-0.0219,-0.0252,-0.0154,-0.0202,-0.0125,-0.0194,-0.0095,-0.0171,-0.0039,-0.0043,-0.0174,-0.0091,-0.0088,-0.0357,-0.0377,-0.0395,-0.044,0,0,0,0,0]},{"header":{"parameterUnit":"m.s-1","parameterCategory":2,"la1":30.2991,"la2":30.254,"lo1":-89.0895,"lo2":-89.0444,"dy":0.0017,"dx":0.0017,"nx":28,"ny":28,"refTime":"2023-08-04T21:00:00:Z","depth":"4","parameterNumber":3,"parameterNumberName":"V-component_of_CURRENTS"},"data":[0,0,0,0,0,0,0,0,0,0,0,0,0,0,0,0,0,0,0,0,0,0,0,0,0,0,0,0,0,0,0,0,0,0,0,0,0,0,0,0,0,0,0,0,0,0,0,0,0,0,0,0,0,0,0,0,0,0,0.0229,0.023,0,0.0276,0.0276,0.0277,0.0301,0.0301,0.0301,0.0301,0.0296,0.0296,0.0296,0,0,0,0,0,0,0,0,0,0,0,0,0,0.0257,0.0256,0.0229,0.023,0.023,0.0276,0.0277,0.0277,0.0301,0.0301,0.0301,0.0301,0.0296,0.0296,0.0296,0,0,0,0,0,0,0,0,0,0,0,0,0,0.0268,0.0255,0.0229,0.0248,0.0251,0.0276,0.0277,0.0277,0.0301,0.0301,0.0301,0.0301,0.0296,0.0296,0.0296,0.0291,0,0,0.0295,0.0294,0,0,0,0,0,0,0,0,0.0267,0.0266,0.0245,0.0247,0.025,0.0283,0.0285,0.0279,0.0301,0.0281,0.0301,0.0301,0.0287,0.0288,0.0296,0.0291,0.029,0.0295,0.0294,0.0294,0.0294,0,0,0,0,0,0,0,0.0266,0.0265,0.0247,0.0245,0.0248,0.0288,0.0289,0.0285,0.0281,0.0283,0.0285,0.0291,0.0288,0.0296,0.0296,0.029,0.0295,0.0294,0.0294,0.0294,0.0233,0.0231,0,0,0,0,0,0,0.0256,0.0263,0.0245,0.0248,0.026,0.0287,0.0288,0.0272,0.0282,0.0285,0.0291,0.0292,0.0297,0.0296,0.0296,0.0274,0.0294,0.0294,0.0294,0.0234,0.0232,0.0231,0,0,0,0,0,0,0.0256,0.0253,0.0243,0.026,0.0261,0.0286,0.0268,0.0273,0.0283,0.029,0.0291,0.0297,0.0297,0.0296,0.0285,0.0275,0.0294,0.0293,0.0236,0.0234,0.0232,0.0241,0,0,0,0,0,0,0.0256,0.0252,0.0246,0.0258,0.026,0.0241,0.0268,0.0273,0.0287,0.0289,0.0295,0.0295,0.0297,0.0285,0.0285,0.0275,0.0293,0.0238,0.0235,0.0232,0.0243,0.024,0.0237,0,0,0,0,0,0.0257,0.0242,0.0245,0.0244,0.0246,0.024,0.0244,0.0264,0.0287,0.0278,0.0289,0.0295,0.0267,0.0284,0.0284,0.0273,0.0239,0.0236,0.0232,0.0244,0.024,0.0237,0,0,0,0,0,0,0.0255,0.0243,0.0247,0.023,0.0229,0.0244,0.0253,0.0265,0.0269,0.0279,0.0287,0.0286,0.0263,0.0263,0.0282,0.0242,0.025,0.0246,0.0258,0.0255,0.0252,0.0287,0.0293,0,0,0,0,0,0.025,0.023,0.023,0.0215,0.022,0.0238,0.0246,0.0252,0.0258,0.0262,0.0265,0.0263,0.0249,0.025,0.023,0.0225,0.0237,0.021,0.0208,0.0206,0.023,0.0234,0.0235,0.022,0.022,0.022,0,0,0.0247,0.0239,0.0229,0.0214,0.0226,0.0211,0.0242,0.0246,0.0222,0.0259,0.0238,0.0249,0.0239,0.0221,0.0212,0.0226,0.0211,0.0202,0.02,0.0227,0.0231,0.0233,0.0235,0.0218,0.0218,0.0219,0,0,0.0232,0.0223,0.0208,0.0198,0.0203,0.0202,0.02,0.0209,0.0204,0.0189,0.0203,0.0223,0.0194,0.0204,0.0201,0.0172,0.0185,0.0148,0.0182,0.0185,0.0188,0.019,0.0195,0.0198,0.0161,0.0161,0.0161,0,0.0228,0.0201,0.0204,0.0187,0.0172,0.0193,0.0167,0.016,0.0159,0.015,0.0173,0.0176,0.0189,0.0181,0.0191,0.0171,0.0175,0.0202,0.0186,0.0189,0.0191,0.0196,0.0199,0.0161,0.0161,0.0161,0.0161,0,0.0205,0.018,0.0173,0.0143,0.0125,0.0107,0.009,0.0078,0.0086,0.0087,0.0083,0.0125,0.0147,0.0141,0.0176,0.0191,0.0187,0.0174,0.0206,0.0194,0.0198,0.0202,0.0161,0.0161,0.0161,0.0161,0,0,0.018,0.0159,0.0148,0.0126,0.0095,0.0073,0.0031,-0.0003,-0.0018,0.0004,0.0007,0.0039,0.0111,0.0117,0.016,0.0195,0.0237,0.0218,0.0218,0.0244,0.0248,0.0141,0.0135,0.0224,0.0225,0.0225,0.024,0,0.0153,0.011,0.0096,0.0036,0.0013,-0.0005,-0.0051,-0.0078,-0.0079,-0.0071,-0.0011,0.0018,0.0078,0.0137,0.0176,0.0214,0.0249,0.0235,0.0239,0.0239,0.0163,0.0135,0.0228,0.0243,0.0244,0.0244,0.0245,0,0.0128,0.0094,0.0041,-0.0022,-0.0035,-0.0072,-0.0132,-0.016,-0.0155,-0.0133,-0.0069,-0.0018,0.0073,0.013,0.0201,0.019,0.0242,0.0269,0.0269,0.0176,0.0138,0.0257,0.0251,0.025,0.025,0.0249,0.0249,0,0.0109,0.0046,-0.0001,-0.0024,-0.0084,-0.0119,-0.0146,-0.0175,-0.0188,-0.013,-0.0092,-0.0027,0.0053,0.0107,0.0196,0.021,0.025,0.0257,0.0199,0.0192,0.0287,0.0284,0.0311,0.0311,0.0311,0.0311,0.0311,0,0.0076,0.0036,-0.0011,-0.0038,-0.0114,-0.0134,-0.0188,-0.0195,-0.0173,-0.017,-0.0084,-0.0054,0.006,0.0096,0.0168,0.0178,0.0222,0.0208,0.0186,0.0285,0.0282,0.0288,0.0286,0.0312,0.0312,0.0312,0.0311,0,0.0065,0.0043,-0.0016,-0.0088,-0.0116,-0.016,-0.0205,-0.0227,-0.0186,-0.0161,-0.0118,-0.0058,-0.003,0.0032,0.0106,0.013,0.0156,0.0154,0.0249,0.0232,0.0111,0.0108,0.009,0.0086,0.0083,0.008,0.0078,0,0.0054,0.003,-0.0051,-0.0094,-0.0128,-0.0188,-0.0228,-0.0223,-0.0229,-0.0184,-0.0168,-0.0128,-0.0091,-0.0063,-0.0023,0.0034,0.0054,0.0084,0.0122,0.0106,0.0088,0.009,0.0091,0.0073,0.0072,0.0072,0.0071,0,0.002,0.0006,-0.0044,-0.0112,-0.0169,-0.0241,-0.0282,-0.0271,-0.0248,-0.0221,-0.0176,-0.0142,-0.0146,-0.0115,-0.0081,-0.0034,0.0067,0.0052,0.006,0.0097,0.0085,0.0071,0.0076,0.006,0.0061,0.0062,0.0063,0,-0.0007,-0.0044,-0.0083,-0.0143,-0.0204,-0.0254,-0.0287,-0.029,-0.0282,-0.0205,-0.022,-0.0175,-0.0156,-0.0157,-0.0138,-0.0112,-0.009,-0.0029,-0.0016,-0.0004,-0.0049,-0.0078,-0.0172,0,0,0,0,0,-0.004,-0.0063,-0.0115,-0.0177,-0.0218,-0.0252,-0.0306,-0.0322,-0.0296,-0.0254,-0.0216,-0.0211,-0.0184,-0.0197,-0.0187,-0.0229,-0.0115,-0.0221,-0.0044,-0.0001,0.0012,-0.0037,0,0,0,0,0,0,-0.0073,-0.0107,-0.0113,-0.0161,-0.0192,-0.0254,-0.028,-0.0281,-0.0263,-0.0224,-0.0218,-0.0195,-0.0193,-0.0164,-0.0172,-0.0177,-0.0063,-0.0215,-0.0215,-0.0008,0.0004,0.0014,-0.0033,0,0,0,0,0]}]]